Location: Mercogliano
(40.9167°N, 14.7333°E)
Time: 05:08:29
(UTC+00:00)

Cosmos 1844 Rocket - Pass Details

Date: 18 September 2020
Orbit: 823 x 846 km, 71.0° (Epoch: 25 October)

Event Time Altitude Azimuth Distance (km) Brightness Sun altitude
Rises 17:54:39 0° 166° (SSE) 3,342 5.6 -10.2°
Reaches altitude 10° 17:57:31 10° 152° (SSE) 2,415 4.7 -10.8°
Maximum altitude 18:01:46 23° 101° (E) 1,683 3.7 -11.5°
Drops below altitude 10° 18:06:03 10° 51° (NE) 2,434 4.7 -12.3°
Sets 18:08:56 0° 37° (NE) 3,375 5.6 -12.9°
